Creelman (971, 635, 6917) Station Data

Red Flag Warning: No
Fire Weather Zone: 250
SDGE Region: Ramona
Lat/Lon: 33.016/-116.871

Observations

Time Wind Speed/Gust Temp(F) RH Fuel Moist Fuel Temp(F) Dewpt(F) Tmax(F) Tmin(F) Accum Precip 10-min Precip SL Press(mb)
6/22 5:00am 99 0 G 2 62° 95% - - 61° 71.2° 61.8° - - -
6/22 4:50am 0 0 G 0 63° 96% - - 61° 71.2° 62.1° - - -
6/22 4:40am 0 0 G 0 63° 96% - - 62° 71.2° 62.5° - - -
6/22 4:30am 0 0 G 0 63° 96% - - 62° 71.2° 62.7° - - -
6/22 4:20am 0 0 G 0 63° 95% - - 62° 71.2° 62.8° - - -
6/22 4:10am 0 0 G 0 63° 95% - - 62° 71.2° 62.8° - - -
6/22 4:00am 0 0 G 0 63° 95% - - 62° 71.2° 62.8° - - -
6/22 3:50am 0 0 G 0 64° 95% - - 62° 71.2° 63.2° - - -
6/22 3:40am 243 0 G 1 64° 94% - - 62° 71.2° 63.3° - - -
6/22 3:30am 220 1 G 1 64° 94% - - 62° 71.2° 63.8° - - -
6/22 3:20am 230 1 G 2 64° 93% - - 62° 71.2° 63.9° - - -
6/22 3:10am 252 1 G 2 65° 93% - - 63° 71.2° 64.4° - - -
6/22 3:00am 273 2 G 2 65° 92% - - 62° 71.2° 64.4° - - -
6/22 2:50am 235 1 G 2 65° 91% - - 63° 71.2° 64.9° - - -
6/22 2:40am 258 1 G 2 66° 91% - - 63° 71.2° 65.2° - - -
6/22 2:30am 255 1 G 2 66° 89% - - 63° 71.2° 65.2° - - -
6/22 2:20am 0 0 G 0 66° 89% - - 63° 71.2° 65.6° - - -
6/22 2:10am 244 1 G 1 66° 88% - - 63° 71.2° 65.9° - - -
6/22 2:00am 223 2 G 2 67° 86% - - 62° 71.2° 66° - - -
6/22 1:50am 261 0 G 2 67° 86% - - 63° 71.2° 66.7° - - -
6/22 1:40am 0 0 G 0 67° 84% - - 62° 71.2° 66.8° - - -
6/22 1:30am 0 0 G 0 68° 82% - - 62° 71.2° 67.4° - - -
6/22 1:20am 0 0 G 0 68° 82% - - 62° 71.2° 67.7° - - -
6/22 1:10am 0 0 G 0 69° 78% - - 62° 71.2° 68.1° - - -
6/22 1:00am 0 0 G 0 69° 80% - - 63° 71.2° 68.8° - - -
6/22 12:50am 0 0 G 0 69° 79% - - 63° 71.2° 69° - - -
6/22 12:40am 0 0 G 0 69° 77% - - 62° 71.2° 69.1° - - -
6/22 12:30am 0 0 G 0 70° 79% - - 63° 71.2° 69.3° - - -
6/22 12:20am 0 0 G 0 70° 78% - - 63° 71.2° 69.6° - - -
6/22 12:10am 0 0 G 0 70° 76% - - 62° 71.2° 70° - - -
6/22 12:00am 0 0 G 0 71° 76% - - 63° 103.1° 66.8° - - -
6/21 11:50pm 0 0 G 0 71° 76% - - 63° 103.1° 66.8° - - -
6/21 11:40pm 0 0 G 0 71° 75% - - 63° 103.1° 66.8° - - -
6/21 11:30pm 0 0 G 0 71° 73% - - 62° 103.1° 66.8° - - -
6/21 11:20pm 0 0 G 0 72° 75% - - 63° 103.1° 66.8° - - -
6/21 11:10pm 0 0 G 0 72° 74% - - 63° 103.1° 66.8° - - -
6/21 11:00pm 0 0 G 0 72° 73% - - 63° 103.1° 66.8° - - -
6/21 10:50pm 0 0 G 0 73° 71% - - 63° 103.1° 66.8° - - -
6/21 10:40pm 231 1 G 2 74° 70% - - 63° 103.1° 66.8° - - -
6/21 10:30pm 254 1 G 2 74° 70% - - 63° 103.1° 66.8° - - -
6/21 10:20pm 271 2 G 2 74° 69% - - 63° 103.1° 66.8° - - -
6/21 10:10pm 279 2 G 3 75° 68% - - 63° 103.1° 66.8° - - -
6/21 10:00pm 231 1 G 2 76° 65% - - 63° 103.1° 66.8° - - -
6/21 9:50pm 245 0 G 2 76° 65% - - 63° 103.1° 66.8° - - -
6/21 9:40pm 248 1 G 2 77° 64% - - 64° 103.1° 66.8° - - -
6/21 9:30pm 261 0 G 2 77° 64% - - 64° 103.1° 66.8° - - -
6/21 9:20pm 267 1 G 2 77° 63% - - 64° 103.1° 66.8° - - -
6/21 9:10pm 243 2 G 3 78° 63% - - 64° 103.1° 66.8° - - -
6/21 9:00pm 233 3 G 3 78° 62% - - 64° 103.1° 66.8° - - -
6/21 8:50pm 231 3 G 4 78° 62% - - 64° 103.1° 66.8° - - -
6/21 8:40pm 242 3 G 5 79° 60% - - 64° 103.1° 66.8° - - -
6/21 8:30pm 234 3 G 4 80° 58% - - 64° 103.1° 66.8° - - -
6/21 8:20pm 255 3 G 4 81° 56% - - 64° 103.1° 66.8° - - -
6/21 8:10pm 242 3 G 5 82° 55% - - 64° 103.1° 66.8° - - -
6/21 8:00pm 264 3 G 5 83° 53% - - 64° 103.1° 66.8° - - -
6/21 7:50pm 276 5 G 6 85° 50% - - 64° 103.1° 66.8° - - -
6/21 7:40pm 279 4 G 5 86° 48% - - 64° 103.1° 66.8° - - -
6/21 7:30pm 286 4 G 6 87° 46% - - 64° 103.1° 66.8° - - -
6/21 7:20pm 283 4 G 6 88° 44% - - 63° 103.1° 66.8° - - -
6/21 7:10pm 293 4 G 5 89° 42% - - 63° 103.1° 66.8° - - -
6/21 7:00pm 279 4 G 5 89° 42% - - 63° 103.1° 66.8° - - -
6/21 6:50pm 290 4 G 6 89° 42% - - 63° 103.1° 66.8° - - -
6/21 6:40pm 297 6 G 8 90° 41% - - 63° 103.1° 66.8° - - -
6/21 6:30pm 302 7 G 9 90° 41% - - 63° 103.1° 66.8° - - -
6/21 6:20pm 295 6 G 9 91° 40% - - 63° 103.1° 66.8° - - -
6/21 6:10pm 291 8 G 11 91° 39% - - 63° 103.1° 66.8° - - -
6/21 6:00pm 300 7 G 11 92° 38% - - 63° 103.1° 66.8° - - -
6/21 5:50pm 294 7 G 11 93° 37% - - 63° 103.1° 66.8° - - -
6/21 5:40pm 307 8 G 11 94° 36% - - 62° 103.1° 66.8° - - -
6/21 5:30pm 283 8 G 12 94° 35% - - 62° 103.1° 66.8° - - -
6/21 5:20pm 293 8 G 12 95° 33% - - 61° 103.1° 66.8° - - -
6/21 5:10pm 276 7 G 10 96° 31% - - 60° 103.1° 66.8° - - -
6/21 5:00pm 298 7 G 11 96° 30% - - 60° 103.1° 66.8° - - -
6/21 4:50pm 286 7 G 11 96° 31% - - 60° 103.1° 66.8° - - -
6/21 4:40pm 296 8 G 11 95° 30% - - 59° 103.1° 66.8° - - -
6/21 4:30pm 294 8 G 12 95° 30% - - 59° 103.1° 66.8° - - -
6/21 4:20pm 293 9 G 12 95° 30% - - 59° 103.1° 66.8° - - -
6/21 4:10pm 290 9 G 13 96° 30% - - 60° 103.1° 66.8° - - -
6/21 4:00pm 296 10 G 14 96° 29% - - 59° 103.1° 66.8° - - -
6/21 3:50pm 288 10 G 13 96° 29% - - 59° 103.1° 66.8° - - -
6/21 3:40pm 297 9 G 15 97° 30% - - 60° 103.1° 66.8° - - -
6/21 3:30pm 298 10 G 15 97° 29% - - 59° 103.1° 66.8° - - -
6/21 3:20pm 292 10 G 14 97° 27% - - 58° 103.1° 66.8° - - -
6/21 3:10pm 294 9 G 14 98° 27% - - 59° 103.1° 66.8° - - -
6/21 3:00pm 295 9 G 13 99° 27% - - 59° 103.1° 66.8° - - -
6/21 2:50pm 292 9 G 13 99° 26% - - 58° 103.1° 66.8° - - -
6/21 2:40pm 285 10 G 14 99° 26% - - 57° 103.1° 66.8° - - -
6/21 2:30pm 298 9 G 13 99° 25% - - 57° 103.1° 66.8° - - -
6/21 2:20pm 287 11 G 15 99° 26% - - 58° 103.1° 66.8° - - -
6/21 2:10pm 283 10 G 15 100° 29% - - 61° 103.1° 66.8° - - -
6/21 2:00pm 284 9 G 13 101° 28% - - 62° 103.1° 66.8° - - -
6/21 1:50pm 243 10 G 21 100° 29% - - 63° 101.9° 66.8° - - -
6/21 1:40pm 242 8 G 16 101° 31% - - 64° 101.9° 66.8° - - -
6/21 1:30pm 232 8 G 16 101° 30% - - 64° 101.9° 66.8° - - -
6/21 1:20pm 232 8 G 13 101° 31% - - 65° 101.7° 66.8° - - -
6/21 1:10pm 207 7 G 13 101° 31% - - 65° 101.6° 66.8° - - -
6/21 1:00pm 220 7 G 12 100° 32% - - 65° 101.6° 66.8° - - -
6/21 12:50pm 210 7 G 12 100° 32% - - 65° 101.6° 66.8° - - -
6/21 12:40pm 208 7 G 12 100° 32% - - 65° 101.6° 66.8° - - -
6/21 12:30pm 249 7 G 11 100° 32% - - 65° 101.6° 66.8° - - -
6/21 12:20pm 291 8 G 12 99° 32% - - 64° 100.9° 66.8° - - -
6/21 12:10pm 295 8 G 12 99° 31% - - 63° 100.9° 66.8° - - -
6/21 12:00pm 278 9 G 13 99° 29% - - 61° 100.9° 66.8° - - -
6/21 11:50am 287 8 G 12 99° 29% - - 61° 100.9° 66.8° - - -
6/21 11:40am 294 9 G 13 99° 30% - - 63° 100.9° 66.8° - - -
6/21 11:30am 270 7 G 11 100° 29% - - 62° 100.9° 66.8° - - -
6/21 11:20am 215 5 G 9 100° 27% - - 60° 100.7° 66.8° - - -
6/21 11:10am 243 3 G 7 99° 26% - - 59° 100.7° 66.8° - - -
6/21 11:00am 226 4 G 8 100° 25% - - 58° 100.7° 66.8° - - -
6/21 10:50am 245 3 G 7 99° 24% - - 56° 100.7° 66.8° - - -
6/21 10:40am 233 3 G 8 98° 25% - - 56° 99.6° 66.8° - - -
6/21 10:30am 279 3 G 6 97° 24% - - 55° 98.1° 66.8° - - -
6/21 10:20am 241 3 G 7 97° 26% - - 56° 97.3° 66.8° - - -
6/21 10:10am 230 3 G 6 96° 28% - - 57° 97.1° 66.8° - - -
6/21 10:00am 196 3 G 8 96° 28% - - 58° 97.1° 66.8° - - -
6/21 9:50am 213 3 G 5 95° 29% - - 57° 95.9° 66.8° - - -
6/21 9:40am 267 3 G 6 95° 28% - - 57° 95.5° 66.8° - - -
6/21 9:30am 126 1 G 5 95° 28% - - 57° 95.5° 66.8° - - -
6/21 9:20am 178 1 G 3 93° 29% - - 57° 95.1° 66.8° - - -
6/21 9:10am 151 1 G 3 92° 30% - - 56° 92.2° 66.8° - - -
6/21 9:00am 35 1 G 3 91° 30% - - 55° 92.1° 66.8° - - -
6/21 8:50am 191 1 G 2 89° 32% - - 56° 90.8° 66.8° - - -
6/21 8:40am 276 2 G 3 88° 35% - - 57° 88.5° 66.8° - - -
6/21 8:30am 264 2 G 4 87° 39% - - 58° 87.5° 66.8° - - -
6/21 8:20am 239 2 G 3 85° 41% - - 59° 86° 66.8° - - -
6/21 8:10am 258 1 G 2 84° 42% - - 58° 84.4° 66.8° - - -
6/21 8:00am 0 0 G 0 83° 42% - - 57° 83.3° 66.8° - - -
6/21 7:50am 0 0 G 0 81° 45% - - 57° 82.4° 66.8° - - -
6/21 7:40am 0 0 G 0 78° 52% - - 59° 79.4° 66.8° - - -
6/21 7:30am 0 0 G 0 78° 52% - - 59° 79° 66.8° - - -
6/21 7:20am 0 0 G 0 77° 54% - - 59° 78.6° 66.8° - - -
6/21 7:10am 0 0 G 0 75° 59% - - 59° 76.1° 66.8° - - -
6/21 7:00am 0 0 G 0 74° 61% - - 59° 75° 66.8° - - -
6/21 6:50am 0 0 G 0 72° 63% - - 59° 75° 66.8° - - -
6/21 6:40am 93 1 G 2 70° 67% - - 59° 75° 66.8° - - -
6/21 6:30am 97 0 G 2 69° 68% - - 58° 75° 66.8° - - -
6/21 6:20am 91 1 G 2 68° 70% - - 58° 75° 66.8° - - -
6/21 6:10am 91 2 G 2 68° 71% - - 58° 75° 66.8° - - -
6/21 6:00am 95 1 G 2 67° 72% - - 58° 75° 66.8° - - -
6/21 5:50am 86 2 G 2 67° 73% - - 59° 75° 66.8° - - -
6/21 5:40am 79 2 G 3 67° 74% - - 59° 75° 66.8° - - -
6/21 5:30am 77 1 G 2 68° 73% - - 59° 75° 67° - - -
6/21 5:20am 98 1 G 2 68° 75% - - 60° 75° 67.1° - - -
6/21 5:10am 0 0 G 0 68° 75% - - 60° 75° 67.1° - - -
6/21 5:00am 0 0 G 0 68° 76% - - 60° 75° 67.1° - - -
6/21 4:50am 0 0 G 0 68° 75% - - 60° 75° 67.4° - - -
6/21 4:40am 86 1 G 1 69° 72% - - 59° 75° 67.9° - - -
6/21 4:30am 95 1 G 2 68° 72% - - 59° 75° 67.9° - - -
6/21 4:20am 98 1 G 2 69° 71% - - 59° 75° 68.5° - - -
6/21 4:10am 98 2 G 3 70° 70% - - 59° 75° 68.6° - - -
6/21 4:00am 85 2 G 3 69° 71% - - 59° 75° 68.6° - - -
6/21 3:50am 0 0 G 0 69° 70% - - 59° 75° 68.6° - - -
6/21 3:40am 0 0 G 0 70° 70% - - 60° 75° 69.1° - - -
6/21 3:30am 0 0 G 0 70° 69% - - 59° 75° 69.3° - - -
6/21 3:20am 0 0 G 0 70° 69% - - 59° 75° 69.6° - - -
6/21 3:10am 85 1 G 2 70° 68% - - 59° 75° 69.9° - - -
6/21 3:00am 90 2 G 2 70° 67% - - 59° 75° 70.1° - - -
6/21 2:50am 89 1 G 2 71° 67% - - 59° 75° 70.2° - - -
6/21 2:40am 79 1 G 1 71° 66% - - 59° 75° 70.4° - - -
6/21 2:30am 77 1 G 2 71° 65% - - 59° 75° 70.8° - - -
6/21 2:20am 95 1 G 2 72° 65% - - 59° 75° 71° - - -
6/21 2:10am 74 2 G 2 71° 65% - - 59° 75° 71° - - -
6/21 2:00am 90 1 G 2 72° 64% - - 60° 75° 71.4° - - -
6/21 1:50am 98 1 G 2 72° 64% - - 59° 75° 71.5° - - -
6/21 1:40am 0 0 G 0 73° 63% - - 59° 75° 71.7° - - -
6/21 1:30am 0 0 G 0 72° 64% - - 59° 75° 71.7° - - -
6/21 1:20am 0 0 G 0 73° 63% - - 59° 75° 72° - - -
6/21 1:10am 0 0 G 0 73° 64% - - 60° 75° 72° - - -
6/21 1:00am 0 0 G 0 73° 62% - - 59° 75° 72.8° - - -
6/21 12:50am 92 0 G 2 74° 60% - - 59° 75° 73° - - -
6/21 12:40am 88 2 G 3 74° 60% - - 59° 75° 73.4° - - -
6/21 12:30am 82 2 G 3 74° 59% - - 59° 75° 73.4° - - -
6/21 12:20am 0 0 G 0 74° 60% - - 59° 75° 73.4° - - -
6/21 12:10am 0 0 G 0 74° 59% - - 59° 75° 73.5° - - -
6/21 12:00am 105 1 G 2 75° 57% - - 59° 104.5° 67.8° - - -
6/20 11:50pm 91 2 G 3 75° 57% - - 59° 104.5° 67.8° - - -
6/20 11:40pm 0 0 G 0 75° 57% - - 59° 104.5° 67.8° - - -
6/20 11:30pm 0 0 G 0 76° 56% - - 59° 104.5° 67.8° - - -
6/20 11:20pm 0 0 G 0 76° 55% - - 59° 104.5° 67.8° - - -
6/20 11:10pm 0 0 G 0 77° 53% - - 59° 104.5° 67.8° - - -
6/20 11:00pm 0 0 G 0 77° 54% - - 59° 104.5° 67.8° - - -
6/20 10:50pm 0 0 G 0 77° 54% - - 59° 104.5° 67.8° - - -
6/20 10:40pm 0 0 G 0 79° 51% - - 59° 104.5° 67.8° - - -
6/20 10:30pm 108 1 G 2 79° 51% - - 59° 104.5° 67.8° - - -
6/20 10:20pm 0 0 G 0 79° 50% - - 59° 104.5° 67.8° - - -
6/20 10:10pm 0 0 G 0 79° 49% - - 59° 104.5° 67.8° - - -
6/20 10:00pm 0 0 G 0 80° 47% - - 58° 104.5° 67.8° - - -
6/20 9:50pm 120 0 G 1 81° 47% - - 59° 104.5° 67.8° - - -
6/20 9:40pm 110 1 G 2 82° 43% - - 58° 104.5° 67.8° - - -
6/20 9:30pm 98 1 G 2 83° 43% - - 59° 104.5° 67.8° - - -
6/20 9:20pm 0 0 G 0 84° 42% - - 58° 104.5° 67.8° - - -
6/20 9:10pm 95 1 G 3 84° 43% - - 59° 104.5° 67.8° - - -
6/20 9:00pm 0 0 G 0 85° 42% - - 59° 104.5° 67.8° - - -
6/20 8:50pm 125 1 G 3 85° 42% - - 59° 104.5° 67.8° - - -
6/20 8:40pm 0 0 G 0 86° 40% - - 59° 104.5° 67.8° - - -
6/20 8:30pm 0 0 G 0 87° 40% - - 60° 104.5° 67.8° - - -
6/20 8:20pm 0 0 G 0 88° 38% - - 59° 104.5° 67.8° - - -
6/20 8:10pm 0 0 G 0 89° 36% - - 59° 104.5° 67.8° - - -
6/20 8:00pm 0 0 G 0 91° 34% - - 59° 104.5° 67.8° - - -
6/20 7:50pm 0 0 G 0 92° 33% - - 59° 104.5° 67.8° - - -
6/20 7:40pm 223 0 G 1 92° 34% - - 59° 104.5° 67.8° - - -
6/20 7:30pm 270 4 G 8 92° 34% - - 60° 104.5° 67.8° - - -
6/20 7:20pm 277 7 G 9 92° 33% - - 59° 104.5° 67.8° - - -
6/20 7:10pm 277 7 G 9 93° 32% - - 58° 104.5° 67.8° - - -
6/20 7:00pm 276 7 G 9 94° 31% - - 58° 104.5° 67.8° - - -
6/20 6:50pm 277 8 G 10 94° 30% - - 58° 104.5° 67.8° - - -
6/20 6:40pm 283 8 G 11 94° 30% - - 58° 104.5° 67.8° - - -
6/20 6:30pm 277 8 G 12 94° 31% - - 59° 104.5° 67.8° - - -
6/20 6:20pm 283 9 G 13 95° 29% - - 58° 104.5° 67.8° - - -
6/20 6:10pm 283 10 G 13 95° 28% - - 57° 104.5° 67.8° - - -
6/20 6:00pm 290 10 G 13 95° 28% - - 57° 104.5° 67.8° - - -